Location: Clanezzo
(45.7500°N, 9.6000°E)
Time: 22:12:08
(UTC+00:00)

ESTCUBE 1 - Pass Details

Date: 07 July 2022
Orbit: 646 x 657 km, 97.9° (Epoch: 07 August)

Event Time Altitude Azimuth Distance (km) Brightness Sun altitude
Exits shadow 22:41:04 14° 242° (WSW) 1,820 ? -21.0°
Maximum altitude 22:42:53 17° 269° (W) 1,652 ? -21.0°
Drops below altitude 10° 22:45:46 10° 310° (NW) 2,059 ? -21.1°
Sets 22:48:44 0° 331° (NNW) 2,978 ? -21.2°
